Change the Weather History Date:

Wednesday, June 19, 2013

  Actual Average Record
Temperature  
Mean Temperature 89 °F 83 °F  
Max Temperature 98 °F 91 °F 98 °F (2013)
Min Temperature 79 °F 74 °F 66 °F (1912)
Degree Days  
Heating Degree Days 0 0  
Month to date heating degree days 0 0  
Since 1 June heating degree days 0 0  
Since 1 July heating degree days 529 898  
Cooling Degree Days 24 18  
Month to date cooling degree days 402 322  
Year to date cooling degree days 1420 1163  
Since 1 June cooling degree days 402 322  
Growing Degree Days 38 (Base 50)    
Moisture  
Dew Point 73 °F    
Average Humidity 67    
Maximum Humidity 91    
Minimum Humidity 42    
Precipitation  
Precipitation 0.00 in 0.12 in 3.15 in (1993)
Month to date precipitation 1.00 2.04  
Year to date precipitation 5.73 12.31  
Snow  
Snow 0.00 in - - ()
Month to date snowfall 0.0  
Since 1 June snowfall 0.0  
Since 1 July snowfall 0.0  
Snow Depth 0.00 in    
Sea Level Pressure  
Sea Level Pressure 29.93 in    
Wind  
Wind Speed 14 mph (SSE)    
Max Wind Speed 28 mph    
Max Gust Speed 33 mph    
Visibility 10 miles    
Events      
T = Trace of Precipitation, MM = Missing Value Source: NWS Daily Summary

Daily Weather History Graph

Daily Weather History Graph

Search for Another Location

Airport or City:

Trip Planner

Search our weather history database for the weather conditions in past years. The results will help you decide how hot, cold, wet, or windy it might be!

Date:

Astronomy

Jun. 19, 2013 Rise Set
Actual Time 6:34 AM CDT 8:28 PM CDT
Civil Twilight 6:07 AM CDT 8:55 PM CDT
Nautical Twilight 5:35 AM CDT 9:27 PM CDT
Astronomical Twilight 5:01 AM CDT 10:01 PM CDT
Moon 4:35 PM CDT (6/19) 3:03 AM CDT (6/19)
Length of Visible Light 14h 47m
Length of Day
13h 54m
Waxing Gibbous, 80% of the Moon is Illuminated
Jun 19
Waxing Gibbous
Jun 23
Full
Jun 29
Last Quarter
Jul 8
New
Jul 15
First Quarter

Hourly Weather History & Observations

Time (CDT) Temp. Heat Index Dew Point Humidity Pressure Visibility Wind Dir Wind Speed Gust Speed Precip Events Conditions
12:51 AM 82.0 °F 88.6 °F 75.0 °F 79% 29.93 in 10.0 mi SSE 13.8 mph - N/A   Partly Cloudy
1:51 AM 81.0 °F 86.2 °F 73.9 °F 79% 29.92 in 10.0 mi South 10.4 mph - N/A   Partly Cloudy
2:51 AM 80.1 °F 84.5 °F 73.9 °F 81% 29.91 in 10.0 mi South 6.9 mph - N/A   Partly Cloudy
3:36 AM 80.6 °F 85.4 °F 73.4 °F 79% 29.92 in 10.0 mi South 6.9 mph - N/A   Mostly Cloudy
3:51 AM 80.1 °F 85.1 °F 75.0 °F 85% 29.91 in 10.0 mi South 8.1 mph - N/A   Overcast
4:34 AM 80.6 °F 85.4 °F 73.4 °F 79% 29.91 in 10.0 mi South 6.9 mph - N/A   Partly Cloudy
4:51 AM 80.1 °F 84.5 °F 73.9 °F 81% 29.91 in 10.0 mi South 6.9 mph - N/A   Partly Cloudy
5:51 AM 79.0 °F - 75.0 °F 88% 29.92 in 10.0 mi SSE 6.9 mph - N/A   Scattered Clouds
6:51 AM 79.0 °F - 73.9 °F 84% 29.93 in 10.0 mi South 5.8 mph - N/A   Partly Cloudy
7:51 AM 81.0 °F 86.7 °F 75.0 °F 82% 29.94 in 10.0 mi SSE 8.1 mph - N/A   Partly Cloudy
8:51 AM 84.9 °F 92.1 °F 73.9 °F 69% 29.96 in 10.0 mi South 12.7 mph - N/A   Scattered Clouds
9:51 AM 88.0 °F 95.6 °F 73.0 °F 61% 29.96 in 10.0 mi SSW 11.5 mph - N/A   Scattered Clouds
10:51 AM 91.9 °F 98.4 °F 71.1 °F 50% 29.96 in 10.0 mi South 15.0 mph - N/A   Scattered Clouds
11:51 AM 93.0 °F 100.1 °F 71.1 °F 49% 29.96 in 10.0 mi South 9.2 mph - N/A   Scattered Clouds
12:51 PM 93.9 °F 102.1 °F 72.0 °F 49% 29.94 in 10.0 mi South 17.3 mph 25.3 mph N/A   Scattered Clouds
1:51 PM 96.1 °F 103.5 °F 71.1 °F 44% 29.93 in 10.0 mi SSE 18.4 mph 25.3 mph N/A   Scattered Clouds
2:51 PM 97.0 °F 104.8 °F 71.1 °F 43% 29.92 in 10.0 mi ESE 20.7 mph 27.6 mph N/A   Scattered Clouds
3:51 PM 96.1 °F 102.9 °F 70.0 °F 43% 29.90 in 10.0 mi SE 23.0 mph 31.1 mph N/A   Partly Cloudy
4:51 PM 93.9 °F 100.3 °F 70.0 °F 46% 29.91 in 10.0 mi SE 24.2 mph 28.8 mph N/A   Partly Cloudy
5:51 PM 91.9 °F 98.4 °F 71.1 °F 50% 29.91 in 10.0 mi SE 26.5 mph 33.4 mph N/A   Partly Cloudy
6:51 PM 90.0 °F 96.9 °F 72.0 °F 55% 29.91 in 10.0 mi SE 20.7 mph - N/A   Partly Cloudy
7:51 PM 88.0 °F 94.7 °F 72.0 °F 59% 29.93 in 10.0 mi SE 19.6 mph - N/A   Partly Cloudy
8:51 PM 84.9 °F 91.4 °F 73.0 °F 67% 29.95 in 10.0 mi SE 17.3 mph 23.0 mph N/A   Clear
9:51 PM 84.0 °F 91.2 °F 73.9 °F 72% 29.97 in 10.0 mi SE 15.0 mph - N/A   Clear
10:51 PM 82.9 °F 89.4 °F 73.9 °F 74% 29.98 in 10.0 mi SE 10.4 mph - N/A   Clear
11:51 PM 82.9 °F 90.2 °F 75.0 °F 77% 30.00 in 10.0 mi SSE 8.1 mph - N/A   Partly Cloudy